Regional Weather Roundup
Issued by NWS

Home | Current Version | Previous Version | Text Only | Print | Product List | Glossary On
Versions: 1 2 3 4 5 6 7 8 9 10 11 12 13 14 15 16 17 18 19 20 21 22 23 24 25 26 27 28 29 30 31 32 33 34 35 36 37 38 39 40 41 42 43 44 45 46 47 48 49 50
000
ASUS45 KTFX 230110
RWRMT
MONTANA REGIONAL WEATHER ROUNDUP
NATIONAL WEATHER SERVICE GREAT FALLS MT
700 PM MDT WED MAR 22 2017

NOTE: "FAIR" INDICATES FEW OR NO CLOUDS BELOW 12000 FEET WITH NO
SIGNIFICANT WEATHER AND/OR OBSTRUCTIONS TO VISIBILITY.

MTZ001>007-043-230200-
WEST OF THE DIVIDE

CITY           SKY/WX    TMP DP  RH WIND       PRES   REMARKS
KALISPELL      LGT RAIN  43  41  93 W9        29.85R FOG
MISSOULA       PTCLDY    50  40  68 N8        29.82R
BUTTE          CLOUDY    52  19  27 CALM      29.79F
MULLAN PASS    SNOW      32  32 100 VRB3      29.84S VSB 1/4
ANACONDA         N/A     52  27  37 E5        29.79F
DEER LODGE       N/A     52  28  40 N5        29.81F
EUREKA           N/A     46  37  71 SE13      29.82R
HAMILTON         N/A     55  27  33 W8        29.78S
PLAINS           N/A     43  35  73 CALM      29.88R
RONAN            N/A     49  40  71 N3        29.88
$$

MTZ008-052>055-230200-
SOUTHWEST MONTANA

CITY           SKY/WX    TMP DP  RH WIND       PRES   REMARKS
BOZEMAN        CLOUDY    53  33  46 S6        29.80R
DILLON         CLOUDY    50  26  39 S15G22    29.78F
W YELLOWSTONE  CLOUDY    39  27  60 CALM      29.89S
ENNIS          CLOUDY    50  27  40 CALM      29.86S
THREE FORKS      N/A     57  57 100 S8        29.80S
TWIN BRIDGES     N/A     51  28  41 E8        29.81F
$$

MTZ009-010-012-014-046-048-049-054-230200-
EAST SLOPES AND CENTRAL MONTANA

CITY           SKY/WX    TMP DP  RH WIND       PRES   REMARKS
CUT BANK       MOCLDY    49  29  46 W24       29.75R
GREAT FALLS    PTCLDY    54  23  30 SW9       29.75R
HELENA         CLOUDY    57  28  33 W9        29.78R
AUGUSTA          N/A     52  27  38 W12       29.76R
BOWMANS CRNR     N/A     53  21  28 W14       29.75R
CHOTEAU          N/A     55  27  33 SW10      29.77R
CONRAD           N/A     54  35  48 W8        29.80S
FAIRFIELD        N/A     55  25  31 W17       29.76R
POWER          MOCLDY    53  23  31 SW12      29.75R
RAYNESFORD     MOCLDY    54  22  29 W13       29.77R
$$

MTZ011-013-016-021-045-047-050-051-230200-
NORTH CENTRAL MONTANA

CITY           SKY/WX    TMP DP  RH WIND       PRES   REMARKS
HAVRE          PTCLDY    57  31  37 W12       29.71S
LEWISTOWN      CLOUDY    57  23  26 N9        29.75R
N BAR RANCH    CLOUDY    54  34  47 VRB6      29.79R
CHINOOK          N/A     59  28  31 SW6       29.71R
DENTON         MOCLDY    56  26  31 NW9       29.72R
FORT BENTON      N/A     61  23  23 MISG      29.74S
GEYSER         MOCLDY    54  23  29 W13       29.76R
GRASS RANGE    MOCLDY    56  27  32 NE8       29.72R
STANFORD       MOCLDY    52  24  34 NW9       29.77R
WINIFRED         N/A     55  25  31 NW9       29.75R
$$

MTZ017>020-022>027-061-062-230200-
NORTHEAST MONTANA

CITY           SKY/WX    TMP DP  RH WIND       PRES   REMARKS
GLASGOW        CLEAR     54  38  54 SE9       29.72S
JORDAN           N/A     57  33  40 CALM      29.72R
SIDNEY         CLOUDY    50  38  63 S3        29.77S
WOLF POINT     CLOUDY    57  37  47 S3        29.74R
MALTA          CLEAR     57  32  38 CALM      29.71R
PLENTYWOOD       N/A     46  36  66 CALM      29.75S
POPLAR           N/A     57  39  51 CALM      29.75S
SCOBEY           N/A     52  30  43 SW2       29.73F
$$

MTZ028>42-056>058-230200-
SOUTHCENTRAL AND SOUTHEAST MONTANA

CITY           SKY/WX    TMP DP  RH WIND       PRES   REMARKS
BAKER          CLOUDY    52  37  56 NW3       29.78S
BILLINGS       MOCLDY    59  41  51 SE12      29.72R
LIVINGSTON     CLOUDY    54  32  43 W18       29.79R
MILES CITY     CLEAR     54  38  54 SE6       29.74F
BIG TIMBER     PTCLDY    55  32  41 NW10      29.80R
EKALAKA          N/A     51  37  58 CALM      29.78F
FORSYTH          N/A     57  41  54 E5        29.73F
HARLOWTON      CLOUDY    55  30  37 W14       29.76R
LAUREL           N/A     59  36  42 NE5       29.74R
$$

REGIONAL REPORTS...DAKOTAS

CITY           SKY/WX    TMP DP  RH WIND       PRES   REMARKS
WILLISTON      CLEAR     49  32  52 S5        29.78S
MINOT          CLOUDY    38  30  73 SE15      29.84F WCI  29
DICKINSON      CLOUDY    48  36  63 SE6       29.76S
BEACH            N/A    N/A N/A N/A MISG        N/A
TIOGA            N/A     37  37 100 SE9       29.80F WCI  31
WATFORD CITY     N/A     45  36  70 SE5       29.79S
BISMARCK       PTCLDY    38  29  70 SE12      29.89R WCI  30
GRAND FORKS    CLOUDY    31  17  56 SE16      30.10F WCI  20
FARGO          CLOUDY    34  23  64 SE25G36   30.12F WCI  21
BUFFALO SD       N/A     57  39  51 E3        29.71F
RAPID CITY     CLOUDY    54  40  59 NW7       29.78R
$$

REGIONAL REPORTS...WYOMING/IDAHO/WASHINGTON

CITY           SKY/WX    TMP DP  RH WIND       PRES   REMARKS
GILLETTE       CLOUDY    57  40  52 E7        29.77F
SHERIDAN       PTCLDY    57  41  55 CALM      29.76F
BUFFALO WY     CLOUDY    53  38  56 CALM      29.80S
CODY           CLOUDY    58  35  42 NW3       29.76R
YELLOWSTONE LA   N/A     35  30  82 W3        29.93R
IDAHO FALLS    CLOUDY    50  36  58 SW5       29.84S
SALMON         MOCLDY    48  30  49 N7        29.78R
BOISE          CLOUDY    58  30  34 W8        29.83S
SPOKANE        CLOUDY    47  40  76 SW13      29.87R
$$

REGIONAL REPORTS...ALBERTA

CITY           SKY/WX    TMP DP  RH WIND       PRES   REMARKS
EDMONTON       CLEAR     32  25  74 N3        29.66S
CALGARY        MOCLDY    52  19  28 W14       29.64R
LETHBRIDGE     PTCLDY    52  25  35 W24G30    29.69R
MEDICINE HAT   PTCLDY    57  30  35 SW14      29.64R
WATERTON GATE    N/A     45  25  45 SW10G18     N/A
CARDSTON         N/A     50  25  37 W10         N/A
MILK RIVER       N/A     54  27  35 NW12        N/A
ONEFOUR          N/A     50  28  43 W9          N/A
$$

REGIONAL REPORTS...SASKATCHEWAN

CITY           SKY/WX    TMP DP  RH WIND       PRES   REMARKS
SWIFT CURRENT  CLEAR     54  28  37 W14G20    29.61R
REGINA         PTCLDY    36  30  80 SE20      29.69F WCI  25
SASKATOON      PTCLDY    43  34  70 W16       29.58R
CYPRESS HILLS    N/A     48  19  32 W12G20      N/A
VAL MARIE        N/A     48  30  49 W7          N/A
ROCKGLEN         N/A     46  36  66 SW9         N/A
ASSINIBOIA       N/A     28  25  86 NW6         N/A  WCI  22
$$



USA.gov is the U.S. government's official web portal to all federal, state and local government web resources and services.